Time,TemperatureF,DewpointF,PressureIn,WindDirection,WindDirectionDegrees,WindSpeedMPH,WindSpeedGustMPH,Humidity,HourlyPrecipIn,Conditions,Clouds,dailyrainin,SoftwareType,DateUTC
2013-07-21 00:00:00,74.5,69.3,29.85,SW,227,0.0,0.0,84,0.00,,,0.00,Wunderground v.1.15,2013-07-21 04:00:00,
2013-07-21 00:08:00,74.2,69.1,29.86,SW,227,0.0,0.0,84,0.00,,,0.00,Wunderground v.1.15,2013-07-21 04:08:00,
2013-07-21 00:20:00,73.7,68.6,29.86,SW,227,0.0,0.0,84,0.00,,,0.00,Wunderground v.1.15,2013-07-21 04:20:00,
2013-07-21 00:30:00,73.7,68.6,29.86,SW,227,0.0,0.0,84,0.00,,,0.00,Wunderground v.1.15,2013-07-21 04:30:00,
2013-07-21 00:40:00,73.7,68.6,29.86,SW,227,0.0,0.0,84,0.00,,,0.00,Wunderground v.1.15,2013-07-21 04:40:00,
2013-07-21 00:50:00,73.5,68.4,29.87,SW,227,0.0,0.0,84,0.00,,,0.00,Wunderground v.1.15,2013-07-21 04:50:00,
2013-07-21 01:00:00,73.1,68.7,29.87,SW,227,0.0,0.0,86,0.00,,,0.00,Wunderground v.1.15,2013-07-21 05:00:00,
2013-07-21 01:10:00,72.7,68.3,29.87,SW,227,0.0,0.0,86,0.00,,,0.00,Wunderground v.1.15,2013-07-21 05:10:00,
2013-07-21 01:20:00,72.5,68.4,29.88,SW,227,0.0,0.0,87,0.00,,,0.00,Wunderground v.1.15,2013-07-21 05:20:00,
2013-07-21 01:30:00,72.2,68.4,29.87,SW,227,0.0,0.0,88,0.00,,,0.00,Wunderground v.1.15,2013-07-21 05:30:00,
2013-07-21 01:40:00,72.1,68.3,29.87,SW,227,0.0,0.0,88,0.00,,,0.00,Wunderground v.1.15,2013-07-21 05:40:00,
2013-07-21 01:50:00,71.9,68.5,29.87,SW,227,0.0,0.0,89,0.00,,,0.00,Wunderground v.1.15,2013-07-21 05:50:00,
2013-07-21 02:00:00,71.6,68.2,29.87,SW,227,0.0,0.0,89,0.00,,,0.00,Wunderground v.1.15,2013-07-21 06:00:00,
2013-07-21 02:10:00,71.2,68.1,29.87,SW,227,0.0,0.0,90,0.00,,,0.00,Wunderground v.1.15,2013-07-21 06:10:00,
2013-07-21 02:20:00,70.7,67.3,29.87,SW,227,0.0,0.0,89,0.00,,,0.00,Wunderground v.1.15,2013-07-21 06:20:00,
2013-07-21 02:30:00,70.4,67.3,29.87,SW,227,0.0,0.0,90,0.00,,,0.00,Wunderground v.1.15,2013-07-21 06:30:00,
2013-07-21 02:40:00,70.3,67.2,29.87,SW,227,0.0,0.0,90,0.00,,,0.00,Wunderground v.1.15,2013-07-21 06:40:00,
2013-07-21 02:50:00,70.3,67.2,29.87,SW,227,0.0,1.0,90,0.00,,,0.00,Wunderground v.1.15,2013-07-21 06:50:00,
2013-07-21 03:00:00,70.2,67.1,29.87,SW,227,0.0,0.0,90,0.00,,,0.00,Wunderground v.1.15,2013-07-21 07:00:00,
2013-07-21 03:10:00,70.0,66.9,29.88,SW,227,0.0,0.0,90,0.00,,,0.00,Wunderground v.1.15,2013-07-21 07:10:00,
2013-07-21 03:20:00,69.6,66.5,29.87,SW,227,0.0,0.0,90,0.00,,,0.00,Wunderground v.1.15,2013-07-21 07:20:00,
2013-07-21 03:30:00,69.6,66.9,29.87,SW,227,0.0,0.0,91,0.00,,,0.00,Wunderground v.1.15,2013-07-21 07:30:00,
2013-07-21 03:40:00,69.7,66.6,29.87,SW,227,1.0,1.0,90,0.00,,,0.00,Wunderground v.1.15,2013-07-21 07:40:00,
2013-07-21 03:50:00,69.7,66.6,29.87,SW,227,0.0,0.0,90,0.00,,,0.00,Wunderground v.1.15,2013-07-21 07:50:00,
2013-07-21 04:00:00,69.3,66.2,29.86,SW,227,0.0,0.0,90,0.00,,,0.00,Wunderground v.1.15,2013-07-21 08:00:00,
2013-07-21 04:10:00,69.3,66.6,29.87,SW,227,0.0,0.0,91,0.00,,,0.00,Wunderground v.1.15,2013-07-21 08:10:00,
2013-07-21 04:20:00,69.6,66.5,29.87,SW,227,0.0,1.0,90,0.00,,,0.00,Wunderground v.1.15,2013-07-21 08:20:00,
2013-07-21 04:30:00,70.5,66.1,29.87,NW,324,1.0,2.0,86,0.00,,,0.00,Wunderground v.1.15,2013-07-21 08:30:00,
2013-07-21 04:40:00,73.5,66.2,29.88,WNW,290,4.0,7.0,78,0.00,,,0.00,Wunderground v.1.15,2013-07-21 08:40:00,
2013-07-21 04:50:00,75.0,66.1,29.87,WNW,290,4.0,4.0,74,0.00,,,0.00,Wunderground v.1.15,2013-07-21 08:50:00,
2013-07-21 05:00:00,75.1,66.2,29.87,NW,304,3.0,3.0,74,0.00,,,0.00,Wunderground v.1.15,2013-07-21 09:00:00,
2013-07-21 05:10:00,74.9,66.1,29.87,WNW,286,2.0,3.0,74,0.00,,,0.00,Wunderground v.1.15,2013-07-21 09:10:00,
2013-07-21 05:20:00,75.1,66.2,29.86,WNW,290,3.0,3.0,74,0.00,,,0.00,Wunderground v.1.15,2013-07-21 09:20:00,
2013-07-21 05:30:00,74.9,66.4,29.87,NE,38,2.0,2.0,75,0.00,,,0.00,Wunderground v.1.15,2013-07-21 09:30:00,
2013-07-21 05:40:00,74.4,66.3,29.87,West,281,1.0,3.0,76,0.00,,,0.00,Wunderground v.1.15,2013-07-21 09:40:00,
2013-07-21 05:50:00,74.4,66.7,29.88,West,264,3.0,3.0,77,0.00,,,0.00,Wunderground v.1.15,2013-07-21 09:50:00,
2013-07-21 06:00:00,73.7,66.8,29.88,West,265,0.0,0.0,79,0.00,,,0.00,Wunderground v.1.15,2013-07-21 10:00:00,
2013-07-21 06:10:00,73.4,66.5,29.88,West,265,0.0,0.0,79,0.00,,,0.00,Wunderground v.1.15,2013-07-21 10:10:00,
2013-07-21 06:20:00,73.2,66.7,29.88,West,265,2.0,2.0,80,0.00,,,0.00,Wunderground v.1.15,2013-07-21 10:20:00,
2013-07-21 06:30:00,72.3,66.8,29.88,SW,232,0.0,0.0,83,0.00,,,0.00,Wunderground v.1.15,2013-07-21 10:30:00,
2013-07-21 06:40:00,71.9,66.5,29.89,SW,232,0.0,0.0,83,0.00,,,0.00,Wunderground v.1.15,2013-07-21 10:40:00,
2013-07-21 06:50:00,72.4,67.3,29.89,SW,232,0.0,0.0,84,0.00,,,0.00,Wunderground v.1.15,2013-07-21 10:50:00,
2013-07-21 07:00:00,73.2,67.4,29.89,South,180,0.0,0.0,82,0.00,,,0.00,Wunderground v.1.15,2013-07-21 11:00:00,
2013-07-21 07:10:00,73.9,68.1,29.89,South,180,0.0,0.0,82,0.00,,,0.00,Wunderground v.1.15,2013-07-21 11:10:00,
2013-07-21 07:20:00,74.9,68.7,29.89,South,180,0.0,0.0,81,0.00,,,0.00,Wunderground v.1.15,2013-07-21 11:20:00,
2013-07-21 07:30:00,74.7,68.8,29.89,South,180,0.0,0.0,82,0.00,,,0.00,Wunderground v.1.15,2013-07-21 11:30:00,
2013-07-21 07:40:00,74.3,68.1,29.90,South,180,0.0,0.0,81,0.00,,,0.00,Wunderground v.1.15,2013-07-21 11:40:00,
2013-07-21 07:50:00,74.8,69.3,29.90,South,180,0.0,0.0,83,0.00,,,0.00,Wunderground v.1.15,2013-07-21 11:50:00,
2013-07-21 08:00:00,74.8,68.9,29.90,South,180,0.0,0.0,82,0.00,,,0.00,Wunderground v.1.15,2013-07-21 12:00:00,
2013-07-21 08:10:00,75.0,69.5,29.90,South,180,0.0,0.0,83,0.00,,,0.00,Wunderground v.1.15,2013-07-21 12:10:00,
2013-07-21 08:20:00,76.7,70.4,29.90,WNW,296,0.0,0.0,81,0.00,,,0.00,Wunderground v.1.15,2013-07-21 12:20:00,
2013-07-21 08:30:00,79.5,70.1,29.91,WNW,293,1.0,1.0,73,0.00,,,0.00,Wunderground v.1.15,2013-07-21 12:30:00,
2013-07-21 08:40:00,81.3,69.7,29.91,WNW,293,1.0,2.0,68,0.00,,,0.00,Wunderground v.1.15,2013-07-21 12:40:00,
2013-07-21 08:50:00,81.7,69.7,29.91,WNW,293,0.0,0.0,67,0.00,,,0.00,Wunderground v.1.15,2013-07-21 12:50:00,
2013-07-21 09:00:00,80.8,70.5,29.90,WNW,293,0.0,0.0,71,0.00,,,0.00,Wunderground v.1.15,2013-07-21 13:00:00,
2013-07-21 09:10:00,81.1,70.4,29.90,WNW,293,0.0,0.0,70,0.00,,,0.00,Wunderground v.1.15,2013-07-21 13:10:00,
2013-07-21 09:20:00,81.0,70.3,29.90,WNW,293,0.0,3.0,70,0.00,,,0.00,Wunderground v.1.15,2013-07-21 13:20:00,
2013-07-21 09:30:00,80.4,70.9,29.90,WNW,293,0.0,0.0,73,0.00,,,0.00,Wunderground v.1.15,2013-07-21 13:30:00,
2013-07-21 09:40:00,80.1,69.8,29.90,WNW,294,1.0,2.0,71,0.00,,,0.00,Wunderground v.1.15,2013-07-21 13:40:00,
2013-07-21 09:50:00,79.8,70.0,29.91,WNW,296,1.0,1.0,72,0.00,,,0.00,Wunderground v.1.15,2013-07-21 13:50:00,
2013-07-21 10:00:00,80.0,70.2,29.91,WNW,296,0.0,0.0,72,0.00,,,0.00,Wunderground v.1.15,2013-07-21 14:00:00,
2013-07-21 10:10:00,80.6,71.5,29.91,WNW,296,0.0,0.0,74,0.00,,,0.00,Wunderground v.1.15,2013-07-21 14:10:00,
2013-07-21 10:20:00,82.0,70.8,29.91,WNW,296,0.0,0.0,69,0.00,,,0.00,Wunderground v.1.15,2013-07-21 14:20:00,
2013-07-21 10:30:00,82.6,70.1,29.91,WNW,296,1.0,1.0,66,0.00,,,0.00,Wunderground v.1.15,2013-07-21 14:30:00,
2013-07-21 10:40:00,83.1,71.0,29.91,WNW,296,0.0,2.0,67,0.00,,,0.00,Wunderground v.1.15,2013-07-21 14:40:00,
2013-07-21 10:50:00,83.7,70.2,29.91,NE,46,2.0,2.0,64,0.00,,,0.00,Wunderground v.1.15,2013-07-21 14:50:00,
2013-07-21 11:00:00,84.1,70.1,29.92,NNE,30,2.0,2.0,63,0.00,,,0.00,Wunderground v.1.15,2013-07-21 15:00:00,
2013-07-21 11:10:00,84.0,70.5,29.91,NNE,22,2.0,2.0,64,0.00,,,0.00,Wunderground v.1.15,2013-07-21 15:10:00,
2013-07-21 11:20:00,84.1,70.6,29.91,NE,38,1.0,2.0,64,0.00,,,0.00,Wunderground v.1.15,2013-07-21 15:20:00,
2013-07-21 11:30:00,84.4,70.9,29.92,NE,38,0.0,0.0,64,0.00,,,0.00,Wunderground v.1.15,2013-07-21 15:30:00,
2013-07-21 11:40:00,85.6,71.1,29.91,WSW,257,1.0,1.0,62,0.00,,,0.00,Wunderground v.1.15,2013-07-21 15:40:00,
2013-07-21 11:50:00,85.6,71.1,29.91,WSW,255,2.0,2.0,62,0.00,,,0.00,Wunderground v.1.15,2013-07-21 15:50:00,
2013-07-21 12:00:00,86.5,71.5,29.91,West,278,1.0,1.0,61,0.00,,,0.00,Wunderground v.1.15,2013-07-21 16:00:00,
2013-07-21 12:10:00,85.2,70.7,29.91,WSW,238,1.0,1.0,62,0.00,,,0.00,Wunderground v.1.15,2013-07-21 16:10:00,
2013-07-21 12:20:00,84.7,70.7,29.91,WSW,238,0.0,1.0,63,0.00,,,0.00,Wunderground v.1.15,2013-07-21 16:20:00,
2013-07-21 12:30:00,85.7,71.7,29.91,WSW,238,0.0,2.0,63,0.00,,,0.00,Wunderground v.1.15,2013-07-21 16:30:00,
2013-07-21 12:40:00,85.4,71.4,29.91,West,270,3.0,4.0,63,0.00,,,0.00,Wunderground v.1.15,2013-07-21 16:40:00,
2013-07-21 12:50:00,85.8,71.3,29.91,West,260,3.0,3.0,62,0.00,,,0.00,Wunderground v.1.15,2013-07-21 16:50:00,
2013-07-21 13:00:00,85.7,71.7,29.91,West,266,3.0,3.0,63,0.00,,,0.00,Wunderground v.1.15,2013-07-21 17:00:00,
2013-07-21 13:10:00,85.3,71.7,29.91,West,267,3.0,4.0,64,0.00,,,0.00,Wunderground v.1.15,2013-07-21 17:10:00,
2013-07-21 13:20:00,86.1,72.5,29.92,West,275,4.0,5.0,64,0.00,,,0.00,Wunderground v.1.15,2013-07-21 17:20:00,
2013-07-21 13:30:00,87.7,72.6,29.91,West,273,4.0,4.0,61,0.00,,,0.00,Wunderground v.1.15,2013-07-21 17:30:00,
2013-07-21 13:40:00,89.4,72.7,29.90,West,276,3.0,3.0,58,0.00,,,0.00,Wunderground v.1.15,2013-07-21 17:40:00,
2013-07-21 13:50:00,89.5,71.7,29.90,West,281,2.0,2.0,56,0.00,,,0.00,Wunderground v.1.15,2013-07-21 17:50:00,
2013-07-21 14:00:00,88.7,70.5,29.90,West,262,2.0,5.0,55,0.00,,,0.00,Wunderground v.1.15,2013-07-21 18:00:00,
2013-07-21 14:10:00,86.5,70.5,29.90,West,259,4.0,4.0,59,0.00,,,0.00,Wunderground v.1.15,2013-07-21 18:10:00,
2013-07-21 14:20:00,86.0,70.5,29.90,West,265,4.0,4.0,60,0.00,,,0.00,Wunderground v.1.15,2013-07-21 18:20:00,
2013-07-21 14:30:00,85.7,69.7,29.90,West,265,5.0,5.0,59,0.00,,,0.00,Wunderground v.1.15,2013-07-21 18:30:00,
2013-07-21 14:40:00,85.3,70.8,29.90,West,267,4.0,4.0,62,0.00,,,0.00,Wunderground v.1.15,2013-07-21 18:40:00,
2013-07-21 14:50:00,85.3,71.3,29.90,West,267,2.0,2.0,63,0.00,,,0.00,Wunderground v.1.15,2013-07-21 18:50:00,
2013-07-21 15:00:00,85.2,72.6,29.90,West,267,3.0,3.0,66,0.00,,,0.00,Wunderground v.1.15,2013-07-21 19:00:00,
2013-07-21 15:10:00,86.1,72.5,29.89,WNW,285,2.0,2.0,64,0.00,,,0.00,Wunderground v.1.15,2013-07-21 19:10:00,
2013-07-21 15:20:00,87.1,71.5,29.89,WNW,285,1.0,1.0,60,0.00,,,0.00,Wunderground v.1.15,2013-07-21 19:20:00,
2013-07-21 15:30:00,87.3,72.2,29.90,WNW,286,2.0,2.0,61,0.00,,,0.00,Wunderground v.1.15,2013-07-21 19:30:00,
2013-07-21 15:40:00,86.7,72.1,29.90,WNW,286,2.0,2.0,62,0.00,,,0.00,Wunderground v.1.15,2013-07-21 19:40:00,
2013-07-21 15:50:00,85.4,71.4,29.89,WNW,286,2.0,2.0,63,0.00,,,0.00,Wunderground v.1.15,2013-07-21 19:50:00,
2013-07-21 16:00:00,85.1,71.5,29.89,WNW,285,2.0,4.0,64,0.00,,,0.00,Wunderground v.1.15,2013-07-21 20:00:00,
2013-07-21 16:10:00,84.7,71.6,29.89,WNW,285,2.0,2.0,65,0.00,,,0.00,Wunderground v.1.15,2013-07-21 20:10:00,
2013-07-21 16:20:00,84.4,71.8,29.89,WNW,285,2.0,2.0,66,0.00,,,0.00,Wunderground v.1.15,2013-07-21 20:20:00,
2013-07-21 16:30:00,83.7,72.9,29.89,NW,316,2.0,2.0,70,0.00,,,0.00,Wunderground v.1.15,2013-07-21 20:30:00,
2013-07-21 16:40:00,82.9,72.1,29.89,NW,310,0.0,2.0,70,0.00,,,0.00,Wunderground v.1.15,2013-07-21 20:40:00,
2013-07-21 16:50:00,82.6,71.8,29.89,NW,306,2.0,2.0,70,0.00,,,0.00,Wunderground v.1.15,2013-07-21 20:50:00,
2013-07-21 17:00:00,82.5,72.1,29.89,WNW,282,3.0,3.0,71,0.00,,,0.00,Wunderground v.1.15,2013-07-21 21:00:00,
2013-07-21 17:10:00,82.1,72.6,29.89,West,281,2.0,2.0,73,0.00,,,0.00,Wunderground v.1.15,2013-07-21 21:10:00,
2013-07-21 17:20:00,81.9,72.0,29.88,WNW,282,2.0,2.0,72,0.00,,,0.00,Wunderground v.1.15,2013-07-21 21:20:00,
2013-07-21 17:30:00,81.4,72.7,29.87,WNW,282,0.0,0.0,75,0.00,,,0.00,Wunderground v.1.15,2013-07-21 21:30:00,
2013-07-21 17:40:00,80.9,71.4,29.87,West,281,1.0,2.0,73,0.00,,,0.00,Wunderground v.1.15,2013-07-21 21:40:00,
2013-07-21 17:50:00,81.1,72.8,29.86,West,281,0.0,0.0,76,0.00,,,0.00,Wunderground v.1.15,2013-07-21 21:50:00,
2013-07-21 18:00:00,81.0,73.1,29.85,West,281,0.0,2.0,77,0.00,,,0.00,Wunderground v.1.15,2013-07-21 22:00:00,
2013-07-21 18:10:00,81.4,72.7,29.85,West,280,2.0,3.0,75,0.00,,,0.00,Wunderground v.1.15,2013-07-21 22:10:00,
2013-07-21 18:20:00,81.6,74.1,29.86,WNW,285,3.0,3.0,78,0.00,,,0.00,Wunderground v.1.15,2013-07-21 22:20:00,
2013-07-21 18:30:00,81.6,73.7,29.85,NW,319,2.0,3.0,77,0.00,,,0.00,Wunderground v.1.15,2013-07-21 22:30:00,
2013-07-21 18:40:00,82.0,74.1,29.87,NW,319,1.0,1.0,77,0.00,,,0.00,Wunderground v.1.15,2013-07-21 22:40:00,
2013-07-21 18:50:00,83.4,73.4,29.87,West,281,1.0,1.0,72,0.00,,,0.00,Wunderground v.1.15,2013-07-21 22:50:00,
2013-07-21 19:00:00,83.2,72.4,29.87,WNW,284,1.0,2.0,70,0.00,,,0.00,Wunderground v.1.15,2013-07-21 23:00:00,
2013-07-21 19:10:00,83.1,72.3,29.88,WNW,284,0.0,0.0,70,0.00,,,0.00,Wunderground v.1.15,2013-07-21 23:10:00,
2013-07-21 19:20:00,82.1,73.0,29.88,WNW,284,0.0,0.0,74,0.00,,,0.00,Wunderground v.1.15,2013-07-21 23:20:00,
2013-07-21 19:30:00,81.8,72.3,29.89,WNW,284,0.0,0.0,73,0.00,,,0.00,Wunderground v.1.15,2013-07-21 23:30:00,
2013-07-21 19:40:00,81.7,72.6,29.90,East,96,0.0,0.0,74,0.00,,,0.00,Wunderground v.1.15,2013-07-21 23:40:00,
2013-07-21 19:50:00,81.6,73.3,29.90,East,96,0.0,0.0,76,0.00,,,0.00,Wunderground v.1.15,2013-07-21 23:50:00,
2013-07-21 20:00:00,81.3,73.4,29.90,NW,314,1.0,1.0,77,0.00,,,0.00,Wunderground v.1.15,2013-07-22 00:00:00,
2013-07-21 20:10:00,81.0,73.5,29.90,NW,314,0.0,0.0,78,0.00,,,0.00,Wunderground v.1.15,2013-07-22 00:10:00,
2013-07-21 20:20:00,80.1,73.4,29.90,NW,314,0.0,0.0,80,0.00,,,0.00,Wunderground v.1.15,2013-07-22 00:20:00,
2013-07-21 20:30:00,79.1,73.1,29.89,NW,314,0.0,0.0,82,0.00,,,0.00,Wunderground v.1.15,2013-07-22 00:30:00,
2013-07-21 20:40:00,78.1,72.9,29.89,NW,314,0.0,0.0,84,0.00,,,0.00,Wunderground v.1.15,2013-07-22 00:40:00,
2013-07-21 20:50:00,77.2,72.7,29.89,NW,314,0.0,0.0,86,0.00,,,0.00,Wunderground v.1.15,2013-07-22 00:50:00,
2013-07-21 21:00:00,76.6,72.4,29.89,NW,314,0.0,0.0,87,0.00,,,0.00,Wunderground v.1.15,2013-07-22 01:00:00,
2013-07-21 21:10:00,76.0,72.2,29.89,NW,314,0.0,0.0,88,0.00,,,0.00,Wunderground v.1.15,2013-07-22 01:10:00,
2013-07-21 21:20:00,75.5,71.7,29.89,NW,314,0.0,0.0,88,0.00,,,0.00,Wunderground v.1.15,2013-07-22 01:20:00,
2013-07-21 21:30:00,74.9,71.4,29.90,NW,314,0.0,0.0,89,0.00,,,0.00,Wunderground v.1.15,2013-07-22 01:30:00,
2013-07-21 21:40:00,74.5,71.0,29.90,NW,314,0.0,0.0,89,0.00,,,0.00,Wunderground v.1.15,2013-07-22 01:40:00,
2013-07-21 21:50:00,73.9,70.8,29.90,NW,314,0.0,0.0,90,0.00,,,0.00,Wunderground v.1.15,2013-07-22 01:50:00,
2013-07-21 22:00:00,73.5,70.7,29.91,NW,314,0.0,0.0,91,0.00,,,0.00,Wunderground v.1.15,2013-07-22 02:00:00,
2013-07-21 22:10:00,73.2,70.4,29.91,NW,313,0.0,2.0,91,0.00,,,0.00,Wunderground v.1.15,2013-07-22 02:10:00,
2013-07-21 22:20:00,73.0,70.2,29.91,NW,314,0.0,0.0,91,0.00,,,0.00,Wunderground v.1.15,2013-07-22 02:20:00,
2013-07-21 22:30:00,72.6,70.1,29.91,NW,314,0.0,0.0,92,0.00,,,0.00,Wunderground v.1.15,2013-07-22 02:30:00,
2013-07-21 22:40:00,72.2,70.1,29.92,NW,314,0.0,0.0,93,0.00,,,0.00,Wunderground v.1.15,2013-07-22 02:40:00,
2013-07-21 22:50:00,72.0,69.9,29.92,NW,314,0.0,0.0,93,0.00,,,0.00,Wunderground v.1.15,2013-07-22 02:50:00,
2013-07-21 23:00:00,71.9,70.1,29.92,NW,314,0.0,0.0,94,0.00,,,0.00,Wunderground v.1.15,2013-07-22 03:00:00,
2013-07-21 23:10:00,72.1,70.3,29.92,NW,314,0.0,1.0,94,0.00,,,0.00,Wunderground v.1.15,2013-07-22 03:10:00,
2013-07-21 23:20:00,72.1,70.3,29.92,NW,314,2.0,2.0,94,0.00,,,0.00,Wunderground v.1.15,2013-07-22 03:20:00,
2013-07-21 23:30:00,71.8,69.7,29.92,NW,314,0.0,0.0,93,0.00,,,0.00,Wunderground v.1.15,2013-07-22 03:30:00,
2013-07-21 23:40:00,71.5,69.7,29.92,NW,314,0.0,0.0,94,0.00,,,0.00,Wunderground v.1.15,2013-07-22 03:40:00,
2013-07-21 23:50:00,71.3,69.5,29.91,NW,314,0.0,0.0,94,0.00,,,0.00,Wunderground v.1.15,2013-07-22 03:50:00,